Regional Weather Roundup
Issued by NWS

Home | Current Version | Previous Version | Graphics & Text | Print | Product List | Glossary On
Versions: 1 2 3 4 5 6 7 8 9 10 11 12 13 14 15 16 17 18 19 20 21 22 23 24 25 26 27
000
ASUS45 KBOU 192306
RWRCO

WEATHER ROUNDUP FOR COLORADO
NATIONAL WEATHER SERVICE DENVER/BOULDER CO
500 PM MDT SAT APR 19 2014

NOTE: "FAIR" INDICATES FEW OR NO CLOUDS BELOW 12000 FEET WITH NO
SIGNIFICANT WEATHER AND/OR OBSTRUCTIONS TO VISIBILITY.

COZ001>005-013-030-031-200000-
...NORTHWEST COLORADO...

CITY           SKY/WX    TMP DP  RH WIND       PRES   REMARKS
CRAIG          PTSUNNY   59  39  47 VRB7      30.06F
HAYDEN         PTSUNNY   54  39  58 E5        30.11F
MEEKER         MOSUNNY   59  39  47 CALM      30.05F
MOUNT WERNER   CLOUDY    39  32  75 W8        30.25R
STEAMBOAT SPGS PTSUNNY   58  32  37 NW9       30.10S
WALDEN         CLOUDY    54  28  37 W15       30.11S
$$

COZ006>008-011-200000-
...WEST CENTRAL VALLEYS...

CITY           SKY/WX    TMP DP  RH WIND       PRES   REMARKS
GRAND JUNCTION MOSUNNY   64  41  42 NW6       30.02F
MONTROSE       PTSUNNY   62  39  42 NW7       30.06S
EAGLE          PTSUNNY   63  34  34 SW13      30.05F
RIFLE          PTSUNNY   66  39  37 W21       30.02F
DELTA          PTSUNNY   67  40  38 SW16G25   30.03S
NUCLA            N/A     61  43  51 W8        30.10S
$$

COZ017>023-064>068-200000-
...SOUTHWEST COLORADO...

CITY           SKY/WX    TMP DP  RH WIND       PRES   REMARKS
DURANGO        CLOUDY    61  30  31 VRB3      30.07F
CORTEZ         PTSUNNY   66  29  24 NW9       30.04F
PAGOSA SPRINGS CLOUDY    58  31  36 NW6       30.12S
TELLURIDE      PTSUNNY   52  32  46 W7        30.16S
WOLF CREEK PAS CLOUDY    36  28  75 SW12G17   30.28F
$$

COZ009-010-012-014-032>034-037-058>063-200000-
...CENTRAL COLORADO...

CITY           SKY/WX    TMP DP  RH WIND       PRES   REMARKS
ASPEN          PTSUNNY   57  29  34 N12G25    30.07S
BUENA VISTA    CLOUDY    54  36  50 NE9G16    30.11S
COPPER MTN     CLOUDY    37  32  81 W6        30.28S HAZE
BERTHOUD PASS  HAZE      28  19  69 MISG      30.31S VSB 1/2
COTTONWOOD PAS CLOUDY    48  32  53 CALM      30.19R
GUNNISON       PTSUNNY   59  28  31 SW15      30.11S
KREMMLING      CLOUDY    50  39  66 E3        30.13S
LEADVILLE      CLOUDY    42  30  62 S10       30.16S
MONARCH PASS   CLOUDY    41  28  60 SW12      30.38S
SALIDA         CLOUDY    61  35  37 E7        30.15S
SUNLIGHT       CLOUDY    39  36  87 CALM      30.24F
WILKERSON PASS SNOW      34  32  93 S5        30.30R VSB 1/2 WCI  30
$$

COZ069>075-200000-
...SAN LUIS VALLEY/SANGRE DE CRISTO MOUNTAINS...

CITY           SKY/WX    TMP DP  RH WIND       PRES   REMARKS
ALAMOSA        MOSUNNY   63  25  23 S12G18    30.04F
LA VETA PASS   PTSUNNY   45  32  61 E9G20     30.21S
SAGUACHE       CLOUDY    57  28  33 W17G31    30.09R
$$

COZ035-036-038>040-200000-
...NORTHERN COLORADO FRONT RANGE...

CITY           SKY/WX    TMP DP  RH WIND       PRES   REMARKS
DENVER INTL AP PTSUNNY   63  37  38 E15       30.03S
DMNS CITY PARK   N/A     58  45  62 W7        30.04S
AURORA         PTSUNNY   63  39  42 SW6       30.05R
FRONT RANGE AP NOT AVBL
ERIE MUNI ARPT HVY RAIN  57  44  62 SW15G26   30.07R
BOULDER MUN AP LGT RAIN  54  45  71 SW13G21   30.06R
CENTENNIAL     CLOUDY    60  36  40 CALM      30.05R
BROOMFIELD     LGT RAIN  54  46  76 W16       30.08R
FORT COLLINS   MOSUNNY   64  39  39 SE13      30.02S
LONGMONT       CLOUDY    59  47  65 SW12      30.05R
$$

COZ041-046-047-076>085-087-088-200000-
...PIKES PEAK/PALMER DIVIDE AND SOUTHERN FOOTHILLS...

CITY           SKY/WX    TMP DP  RH WIND       PRES   REMARKS
COLO. SPRINGS  LGT RAIN  65  32  29 E17G23    30.04S
A. F. ACADEMY  CLOUDY    61  32  32 E13       30.06R
ELLICOTT       NOT AVBL
FALCON         CLOUDY    61  32  33 NE14      30.09R
FORT CARSON    CLOUDY    66  32  28 E9        30.02S
LIMON          MOSUNNY   65  33  30 E20       30.02F
MONUMENT HILL  CLOUDY    57  32  38 E14       30.09R
TRINIDAD       CLOUDY    69  33  26 SE10G18   29.98S
$$

COZ042>045-048>051-090-091-200000-
...NORTHEAST COLORADO...

CITY           SKY/WX    TMP DP  RH WIND       PRES   REMARKS
GREELEY ARPT   MOSUNNY   66  37  34 SE12      30.02S
AKRON          PTSUNNY   63  37  38 E14       30.02S
BURLINGTON     PTSUNNY   70  41  34 NE15      30.01S
WRAY           PTSUNNY   70  38  30 E13G20    29.99F
STERLING       CLOUDY    64  37  36 NE10      30.00F
HOLYOKE        PTSUNNY   70  36  28 NE13      29.99F
FORT MORGAN    CLOUDY    61  34  36 E13       30.02S
$$

COZ086-089-092>099-200000-
...SOUTHEAST COLORADO...

CITY           SKY/WX    TMP DP  RH WIND       PRES   REMARKS
PUEBLO         PTSUNNY   74  35  24 E25       29.93S
LA JUNTA       PTSUNNY   80  31  16 NE5       29.89F
LAMAR          PTSUNNY   81  35  19 E7        29.85F
SPRINGFIELD      N/A     72  43  35 S31G45    29.94R
$$



USA.gov is the U.S. government's official web portal to all federal, state and local government web resources and services.